{"data":{"norad_id":68145,"intl_designator":"2026-049D","name":"STARLINK-36244","alt_names":[],"object_type":"PAYLOAD","status":"ACTIVE","operator":null,"country":"US","launch_date":"2026-03-13","launch_site_code":"AFWTR","launch_vehicle":null,"mission":null,"orbit_class":"UNKNOWN","rcs_meters":null,"size_class":null,"mass_kg":null,"dimensions":null,"purposes":["comms"],"wikipedia_slug":null,"has_3d_model":false,"image_url":null,"decayed_at":null,"tle_current":{"epoch":"2026-09-19T06:35:23.349120Z","epoch_age_seconds":161962,"freshness":"FRESH","line1":"1 68145U 26049D   26262.27457580  .00014603  00000+0  45363-3 0  9998","line2":"2 68145  97.2829 282.2509 0002383 117.4290 242.7196 15.33454656 29319","mean_motion":15.33454656,"eccentricity":0.0002383,"inclination_deg":97.2829,"raan_deg":282.2509,"arg_perigee_deg":117.429,"mean_anomaly_deg":242.7196,"bstar":0.00045363,"rev_number":2931,"period_min":93.905613339505,"perigee_km":463.88360302708,"apogee_km":467.14528730584,"semimajor_km":6843.6514451665,"source":"CELESTRAK","updated_at":"2026-09-20T09:00:43.791707Z"}}}